Dewpoint
57 57 58 56 55 55 57 58 63 63 63 64 64 65 64 64 64 64 63 62 62 62 62 62 62 62 62 62 63 62 59 55 53 53 49 51 59 62 63 63 63 61 61 52 52 50 50 50 50 53 53 53 52 53 47 38 41 40 32 31 29 29 27 29 25 25 29 24 24 26 25 30 26 27 34 42 43 48 49 49 50 52 54 54 53 55 58 64
57 58 58 57 57 55 55 56 60 63 63 64 64 64 64 64 64 64 63 62 62 62 62 62 62 62 62 62 62 61 55 53 52 52 50 57 64 63 62 64 62 62 58 51 47 49 49 51 52 52 54 52 55 51 43 41 40 34 32 31 29 30 28 29 25 25 21 23 21 25 27 29 28 28 33 33 35 46 46 47 49 51 53 54 58 60 61 63
58 59 59 58 57 55 55 56 57 63 63 63 64 64 64 64 63 63 63 62 62 62 61 61 62 62 62 62 61 59 54 52 51 50 52 63 64 64 63 63 62 59 53 50 51 48 49 50 51 51 54 53 50 50 43 39 38 36 33 29 31 34 31 30 26 25 23 22 22 26 27 24 25 31 33 32 36 44 42 44 46 49 51 53 56 60 61 63
59 59 59 58 58 56 56 55 56 59 63 63 64 64 64 63 63 63 63 62 62 61 61 61 62 62 61 61 60 55 53 50 46 49 54 64 65 63 63 61 62 56 49 49 50 51 53 52 52 51 53 50 51 47 48 41 32 34 32 31 32 31 26 25 29 27 25 23 25 26 24 24 25 30 32 31 38 40 42 42 41 45 50 53 57 59 61 62
59 59 58 60 59 59 57 57 57 57 61 63 63 63 63 63 63 63 63 62 62 61 61 61 62 61 61 61 59 53 49 42 42 52 54 65 64 63 62 63 59 51 49 50 50 50 49 49 51 52 53 49 51 49 45 38 35 32 25 33 29 28 26 25 22 24 22 25 25 25 24 24 26 29 30 35 27 28 35 38 42 42 48 55 57 59 61 62
58 58 58 59 59 58 57 55 55 57 57 63 63 63 63 63 62 62 62 62 62 62 62 62 62 61 61 60 55 50 42 35 47 51 62 65 63 63 63 62 58 48 49 48 49 50 48 49 48 48 49 50 47 47 50 34 31 29 26 25 27 26 22 24 24 23 23 24 24 25 25 25 25 25 31 34 27 27 29 31 37 42 50 55 58 59 60 61
58 58 58 58 57 58 57 56 55 55 56 58 63 63 63 62 62 62 62 62 62 62 62 62 61 61 61 59 52 49 42 44 49 52 63 65 65 63 60 59 56 47 47 47 48 49 49 48 49 47 48 47 45 48 46 37 32 25 26 23 23 26 20 22 22 24 22 24 23 24 25 24 24 23 27 34 33 25 25 37 30 45 55 58 58 59 60 61
58 58 57 57 57 56 56 57 56 54 56 56 62 63 62 62 62 62 61 61 62 62 62 62 61 61 60 54 50 48 45 42 46 55 63 64 61 58 56 49 47 48 48 49 50 48 49 47 46 47 47 46 48 46 45 37 32 26 24 25 21 21 20 21 21 21 22 23 25 25 24 23 24 24 28 27 31 32 33 50 49 53 56 57 57 58 60 61
56 59 59 59 58 58 58 58 57 56 55 56 58 62 63 62 62 61 61 61 61 62 62 61 61 61 59 53 50 47 46 49 53 57 62 60 56 51 47 45 47 48 48 49 48 47 48 46 46 47 43 45 45 44 42 40 42 28 25 23 21 21 21 20 21 22 22 23 23 23 22 22 20 23 21 22 25 28 46 52 52 54 55 56 57 58 59 60
56 57 57 58 59 59 59 59 58 57 56 56 56 62 62 62 62 61 61 61 61 61 61 61 61 60 55 52 49 44 48 54 56 60 61 58 52 46 44 45 45 47 49 48 47 47 49 45 46 47 45 42 45 46 42 42 39 24 24 22 22 22 20 23 21 21 22 25 22 22 22 21 23 23 21 19 30 47 50 52 53 53 55 56 57 58 59 60
55 56 55 57 58 59 59 59 59 58 58 58 60 62 62 62 61 61 61 61 61 61 61 61 61 57 53 51 47 43 49 57 59 61 59 56 48 44 44 45 44 46 47 46 46 48 49 46 47 45 45 41 43 40 41 42 33 30 26 23 21 19 20 21 21 21 23 21 22 23 21 22 20 24 21 19 22 45 43 51 53 53 53 55 56 57 58 59
55 55 56 58 59 59 60 59 59 59 58 56 56 62 62 62 61 61 61 61 61 61 61 61 60 55 51 51 48 46 49 54 60 59 57 52 47 47 48 45 45 46 44 43 46 46 47 47 46 44 42 43 40 40 40 47 35 31 21 31 27 22 23 21 19 21 22 21 21 21 20 19 22 19 23 19 40 45 44 49 51 53 52 54 55 56 57 58
54 55 55 55 57 59 60 59 59 58 57 56 55 56 62 61 61 61 61 61 61 61 61 61 58 54 52 49 49 48 48 51 58 56 54 50 48 47 48 49 48 45 45 44 46 48 48 46 46 41 42 40 39 39 39 38 35 33 29 22 30 27 29 21 22 21 21 21 21 21 19 20 19 19 20 23 45 44 44 46 50 52 52 52 53 55 56 57
55 55 55 54 55 58 58 58 58 57 56 55 56 54 60 61 61 61 61 61 61 61 61 61 56 54 51 49 49 49 53 57 56 54 52 49 46 47 45 48 48 47 49 46 46 44 47 45 44 44 48 38 38 38 31 28 30 41 39 28 27 28 31 22 22 21 19 23 20 18 21 18 18 19 23 34 44 37 36 43 48 50 51 51 53 54 55 56
55 54 55 55 56 57 58 58 59 57 56 56 55 55 57 61 61 61 61 61 61 61 61 59 55 53 51 50 50 51 60 58 55 54 50 47 45 43 44 46 45 46 45 43 43 45 44 41 40 37 38 38 37 35 34 29 24 27 37 37 35 28 30 24 31 19 18 20 21 18 21 17 17 17 18 21 44 37 31 35 45 49 50 51 52 53 54 56
54 54 53 55 56 55 55 58 58 58 57 57 56 56 55 58 61 61 61 61 61 61 58 54 55 53 51 48 49 60 59 56 56 54 52 49 47 44 45 44 43 43 43 41 43 41 44 41 36 36 37 37 35 35 34 31 30 25 35 33 30 24 26 26 22 23 25 21 23 17 18 15 15 15 16 21 44 41 33 32 40 47 49 50 51 52 54 54
54 54 54 55 55 56 56 57 57 58 58 58 58 56 55 55 61 61 61 61 60 59 55 53 54 53 46 52 58 55 54 56 54 52 50 50 47 44 44 44 41 40 41 42 44 41 39 35 37 38 41 35 36 35 33 32 32 29 28 32 32 22 21 22 20 20 25 20 18 20 16 15 14 15 15 25 41 41 39 36 34 41 48 50 50 51 52 53
51 53 54 55 54 55 56 57 57 57 58 58 56 55 54 54 57 61 60 60 58 56 55 55 54 50 49 51 48 51 54 53 54 51 50 49 44 43 42 38 43 43 41 37 41 35 38 35 37 35 36 36 34 35 34 32 33 30 23 25 24 20 19 18 19 18 19 19 18 18 17 16 17 17 18 18 35 39 36 36 36 34 39 46 49 50 51 52
50 52 53 54 53 54 56 57 56 58 58 56 56 55 55 54 56 60 57 55 53 49 48 48 49 42 40 46 51 53 53 54 52 49 45 42 45 41 40 40 44 41 39 36 36 33 37 38 40 35 33 33 33 34 36 37 34 32 24 26 27 26 21 17 24 22 21 18 17 18 17 17 18 18 18 21 30 34 33 33 34 34 31 37 44 48 49 50
50 50 52 53 54 55 55 56 57 57 57 56 55 54 52 48 50 52 54 54 51 49 48 50 50 47 49 50 51 53 53 53 49 48 45 45 40 40 39 40 43 42 38 39 36 33 39 34 34 33 34 33 34 34 36 31 34 31 27 24 20 21 20 19 19 21 22 18 17 17 18 17 20 19 18 17 24 27 24 24 26 28 30 30 33 40 45 48
49 50 51 53 55 55 54 55 57 58 57 55 53 48 43 43 40 42 49 52 53 52 51 51 49 46 48 50 52 52 50 48 50 47 43 47 41 40 38 39 38 39 40 37 35 33 35 33 34 35 34 34 33 33 29 29 27 26 24 23 21 25 18 18 18 19 21 20 18 18 18 19 18 19 19 17 18 16 18 20 22 23 25 27 28 29 34 39
50 50 51 52 54 54 55 55 56 57 57 55 51 47 45 46 51 52 51 47 51 50 50 51 48 48 50 51 52 52 50 47 47 47 48 43 40 41 39 39 40 39 36 34 34 33 33 34 35 36 35 34 34 29 28 28 27 25 24 24 23 23 24 19 19 21 21 21 18 18 17 17 17 18 20 17 17 17 17 18 18 19 23 24 25 26 26 29
50 51 51 52 53 54 54 55 55 55 54 52 50 47 46 51 53 54 51 50 49 50 50 49 46 48 49 51 51 51 48 46 45 46 43 43 40 40 37 39 39 35 34 35 35 34 33 35 36 36 35 34 33 33 27 28 27 27 26 25 26 26 21 23 17 22 21 18 20 21 16 18 18 19 20 20 17 17 19 19 19 22 21 21 21 23 24 25
50 51 51 52 53 53 53 54 54 54 52 52 51 49 52 54 55 54 49 45 44 47 50 50 48 49 49 49 51 49 47 47 46 45 46 41 40 37 36 38 35 34 34 36 36 35 33 36 36 34 35 34 32 33 32 31 30 31 28 27 22 23 21 18 15 21 20 20 23 18 20 19 18 16 16 19 18 19 19 20 20 23 26 26 31 30 28 23
50 51 51 52 53 53 54 54 52 50 52 52 51 53 53 54 54 52 47 44 44 45 49 48 45 49 50 50 50 48 46 46 45 46 46 42 37 36 36 36 35 34 34 36 35 36 31 32 34 34 34 33 33 31 34 34 33 33 31 28 24 23 19 22 26 19 18 20 22 22 18 17 21 20 18 18 18 17 16 19 18 19 21 23 22 23 25 30
49 50 51 53 53 53 54 50 49 52 51 48 50 53 54 54 53 52 45 34 35 42 46 41 50 46 51 48 48 47 48 45 45 47 46 45 41 37 34 34 34 35 34 35 35 35 32 30 35 33 33 33 33 32 33 35 34 33 33 26 22 21 22 24 22 21 17 13 23 21 18 17 21 18 19 17 16 15 16 18 17 17 18 19 22 22 22 23
49 50 51 52 53 52 47 44 52 51 47 48 53 54 54 54 53 48 40 31 30 40 41 47 47 47 49 48 48 48 40 41 45 46 45 48 37 41 36 32 31 30 33 32 33 32 30 31 33 34 33 33 32 31 32 35 33 33 34 26 24 24 24 25 26 23 22 27 27 23 20 16 16 16 19 20 15 13 14 14 15 13 14 16 17 19 22 23
48 49 50 51 52 51 48 49 50 48 47 51 54 54 54 52 50 47 37 24 23 43 40 43 45 51 48 49 48 45 43 45 42 45 47 46 42 39 37 32 33 31 31 33 33 29 31 31 33 33 33 32 32 34 32 35 34 32 28 28 26 25 26 28 26 24 25 21 20 20 24 15 16 18 19 16 15 15 15 14 15 14 15 14 16 18 20 21
46 48 50 50 51 52 51 49 48 47 51 52 54 54 53 52 49 39 28 22 37 40 50 42 50 48 46 48 46 43 44 45 41 44 46 46 44 37 35 33 32 31 31 34 33 27 26 32 33 33 33 32 31 31 31 34 31 26 30 32 32 32 32 28 23 25 20 18 20 19 19 16 17 22 18 18 14 14 15 14 13 14 15 16 17 17 18 19
46 47 48 50 49 50 50 50 48 50 52 53 54 53 52 49 43 32 26 18 39 32 43 44 44 41 46 43 42 43 42 39 43 44 45 43 40 34 35 34 32 33 31 29 30 29 26 33 34 32 32 31 30 27 32 33 32 31 29 27 28 28 26 26 26 23 24 17 20 22 19 16 18 20 18 17 18 13 12 12 12 14 17 15 16 16 20 21
45 46 47 49 48 49 49 45 48 51 52 52 53 51 49 45 33 27 22 28 38 36 43 42 40 46 43 41 37 42 40 41 42 42 40 41 34 31 34 32 33 34 30 30 26 26 27 29 31 30 31 28 29 29 31 32 31 29 27 23 22 24 23 25 26 28 18 18 17 15 17 15 18 19 21 16 14 13 11 11 11 12 12 14 16 19 20 21
44 45 46 48 50 49 44 42 49 52 52 51 51 47 43 30 33 26 23 41 31 34 37 38 42 43 42 40 40 40 38 41 41 40 38 38 34 34 35 33 31 30 29 29 28 26 25 28 28 28 33 29 29 28 27 30 30 28 24 21 23 22 19 17 17 15 15 17 17 15 17 13 16 20 14 15 11 8 10 10 10 11 11 14 15 19 22 25
45 45 46 47 49 48 47 49 51 52 52 52 49 47 36 29 21 32 31 34 29 39 36 42 41 42 41 39 39 39 40 37 41 39 38 37 33 35 36 35 34 32 29 30 25 24 24 26 25 27 28 29 30 27 24 24 26 25 21 22 23 19 19 19 18 14 13 18 16 14 18 14 18 16 17 17 17 16 16 15 15 14 13 14 16 22 21 23
45 45 44 47 47 48 49 49 50 53 51 50 46 39 34 26 26 37 32 33 34 39 41 40 42 42 40 38 38 39 37 38 40 39 38 35 33 33 32 32 32 29 30 29 25 25 22 19 23 26 26 28 29 29 26 26 25 25 27 23 26 23 20 19 17 15 17 20 13 16 12 18 15 19 17 16 17 17 16 16 19 20 19 19 20 23 23 23
44 44 43 44 46 48 48 48 51 51 50 46 39 34 26 27 33 31 32 33 33 39 38 42 40 39 38 38 39 39 36 36 40 38 36 34 32 33 32 31 32 28 30 29 27 24 25 21 24 28 28 28 29 29 30 27 26 27 28 28 23 24 24 19 15 15 11 11 10 11 17 20 19 20 18 18 17 17 18 17 19 17 19 22 22 23 23 25
43 43 43 42 44 46 47 49 51 50 46 42 33 29 27 31 29 34 33 37 37 35 38 41 39 37 36 36 38 36 37 36 38 37 35 34 34 33 34 32 31 28 29 30 26 23 21 19 27 28 27 27 28 29 28 27 25 25 24 22 24 27 22 16 12 13 11 12 15 11 13 17 16 14 13 15 14 12 12 11 12 14 16 21 21 21 22 24
43 43 41 43 43 45 47 48 50 48 45 40 31 27 30 33 36 36 39 36 36 38 38 33 35 35 32 32 35 35 35 38 37 36 33 35 33 33 32 32 31 27 29 26 24 24 22 21 26 26 25 26 29 28 28 27 28 24 22 25 25 28 27 19 15 10 9 11 15 11 14 14 12 18 21 11 14 13 13 11 8 11 16 16 18 21 24 27
42 42 41 40 42 44 47 49 50 46 42 36 29 30 35 33 39 38 38 38 38 39 37 35 36 36 33 34 33 35 36 35 35 36 33 34 32 34 32 31 29 27 28 26 26 24 26 20 24 27 27 28 28 27 26 27 28 25 26 31 22 18 17 18 15 8 6 7 9 10 13 12 12 16 15 10 8 8 5 7 10 6 9 17 16 18 21 28
42 41 36 39 42 44 46 49 48 42 38 31 30 29 34 35 39 38 39 39 39 38 36 37 35 36 37 35 36 36 36 34 36 35 33 34 32 33 31 32 28 26 27 23 22 24 25 21 22 26 27 28 27 26 23 24 25 27 27 23 23 20 20 14 18 15 16 11 4 14 8 13 17 14 14 12 11 13 11 10 9 9 13 13 17 21 23 25
38 36 34 41 42 44 46 49 44 39 34 29 30 31 38 34 38 40 42 40 38 39 37 36 38 36 36 35 36 35 36 35 35 35 34 34 32 31 31 30 26 25 25 23 24 27 21 25 20 24 25 26 24 25 24 24 23 21 23 21 19 17 22 19 12 16 12 5 5 5 10 16 19 14 12 11 10 11 11 12 14 14 17 19 22 23 24 24
40 35 36 41 42 44 47 45 38 34 32 34 35 33 36 34 37 38 41 41 40 40 40 37 39 37 36 35 35 36 35 35 35 34 33 33 31 29 32 30 25 24 23 24 25 24 23 20 22 24 24 23 24 25 25 26 24 22 22 21 20 18 16 16 16 13 8 9 8 2 12 15 22 16 11 10 9 11 12 15 14 17 17 19 22 23 24 25
36 29 34 42 43 45 44 36 35 37 34 32 31 34 35 39 38 38 39 41 40 38 38 39 39 37 37 35 35 35 34 34 35 34 33 32 33 29 30 29 24 23 23 21 22 27 25 26 25 20 23 23 24 27 29 27 26 25 23 22 22 20 20 13 15 15 11 12 12 12 4 16 18 17 14 11 10 8 16 18 17 19 20 20 22 24 26 28
34 32 43 42 44 45 40 34 36 35 33 34 35 34 38 38 37 39 38 40 39 36 37 38 38 36 35 36 35 35 35 33 34 33 33 32 33 27 30 25 24 25 31 25 27 23 34 26 24 23 24 26 25 25 29 29 26 24 24 24 21 19 20 20 19 17 17 11 9 7 8 16 15 18 15 16 14 18 21 21 19 21 20 22 25 27 27 29
35 35 37 42 46 43 37 29 30 32 34 34 33 33 37 37 38 38 38 39 39 36 37 37 38 40 35 37 36 34 35 32 34 33 29 28 31 28 29 26 24 25 25 22 23 27 22 22 24 18 18 19 20 24 24 25 27 22 23 25 23 23 22 21 18 15 11 17 16 12 12 16 19 24 19 19 18 17 15 18 23 21 23 26 26 26 26 30
36 37 38 40 45 43 34 34 33 32 32 32 32 32 35 37 38 38 38 38 40 38 38 37 38 40 36 36 35 35 35 33 32 33 28 29 28 28 29 25 24 24 27 28 34 35 29 25 24 20 18 17 15 16 19 22 25 25 24 23 22 21 19 15 14 12 14 17 16 13 14 15 11 13 11 11 15 14 14 18 21 24 23 23 24 25 25 28
32 25 34 37 40 40 37 35 33 32 31 32 31 32 35 35 38 39 39 38 39 38 39 39 38 40 36 35 34 34 34 32 33 29 29 28 26 26 29 27 27 27 30 35 33 29 26 25 23 22 20 18 18 21 26 28 25 23 24 24 22 23 20 21 21 14 15 16 16 16 17 18 16 7 10 11 16 13 10 16 19 23 23 24 24 25 28 32
36 29 32 29 36 37 36 35 35 32 30 31 29 32 33 34 36 37 39 37 39 38 35 37 37 35 34 34 33 33 34 31 31 31 29 27 26 26 28 28 27 29 35 35 31 28 29 24 24 24 23 22 24 23 26 26 24 24 24 24 23 22 21 21 19 16 18 17 14 18 19 18 16 14 15 15 16 14 14 15 17 19 22 26 26 27 33 33
27 31 33 35 33 31 33 34 35 33 32 30 28 33 33 33 35 34 38 39 39 39 36 34 36 36 36 35 34 32 33 31 31 31 29 27 26 27 26 29 28 31 31 30 31 28 24 22 24 23 23 23 25 26 26 26 25 25 25 25 22 22 21 21 21 21 19 18 16 20 20 18 16 14 14 16 16 9 9 9 17 18 21 22 26 28 29 29
34 34 35 34 33 36 36 34 35 34 31 30 30 32 32 33 34 35 36 36 37 36 37 33 34 35 35 37 36 33 33 30 29 31 29 27 27 26 25 26 28 30 27 28 28 25 21 21 24 23 22 23 25 25 25 25 25 25 25 25 24 22 21 21 21 21 20 19 19 23 20 20 19 17 15 14 17 15 14 19 22 21 20 21 26 28 27 25
31 31 31 37 35 36 37 35 34 34 31 31 29 32 32 33 34 36 37 36 33 35 37 35 35 35 35 35 35 33 33 33 32 30 31 29 28 27 26 26 25 27 26 26 25 23 21 18 26 20 17 16 24 25 24 25 25 24 25 25 25 24 22 22 21 22 23 20 20 21 21 20 21 22 20 19 20 22 21 19 19 20 21 22 22 22 23 25
36 38 34 34 33 34 36 36 33 32 30 30 28 33 33 33 34 36 35 37 35 34 35 34 35 35 35 35 34 33 34 34 33 33 32 31 28 29 27 25 27 27 27 26 24 23 23 18 21 21 18 14 19 23 22 24 22 23 24 25 25 24 22 22 22 22 20 20 20 20 20 18 22 22 24 23 21 21 19 20 21 21 20 21 20 22 23 25
38 39 39 38 33 35 35 36 32 31 28 30 30 33 33 33 35 37 35 36 37 37 36 35 36 35 34 34 33 33 34 34 34 33 32 32 29 28 28 28 28 26 26 25 25 25 23 22 19 20 18 16 19 23 22 23 23 18 22 24 25 25 24 24 24 24 23 21 21 20 18 20 22 23 20 21 21 20 21 20 21 21 22 21 21 21 22 23